Stations météo

réclame
Mon MeteoGroup
Madrid/Getafe, Espagne (8224): Température de l'air & dewpoint: 19.04.2018 07:00:00 - 25.04.2018 07:00:00 (CEST)Madrid/Getafe, Espagne (8224): Vitesse du vent: 19.04.2018 07:00:00 - 25.04.2018 07:00:00 (CEST)Madrid/Getafe, Espagne (8224): Direction du vent: 19.04.2018 07:00:00 - 25.04.2018 07:00:00 (CEST)Madrid/Getafe, Espagne (8224): reduced air pressure: 19.04.2018 07:00:00 - 25.04.2018 07:00:00 (CEST)Madrid/Getafe, Espagne (8224): visibility: 19.04.2018 07:00:00 - 25.04.2018 07:00:00 (CEST)
Date & Time tt [°C] td [°C] ff [km/h] ff [knt] dd ppp [hPa] vv [km]
25.04.2018 07:00:00 - - - - - - -
25.04.2018 06:00:00 - - - - - - -
25.04.2018 05:00:00 - - - - - - -
25.04.2018 04:00:00 - - - - - - -
25.04.2018 03:00:00 - - - - - - -
25.04.2018 02:00:00 - - - - - - -
25.04.2018 01:00:00 - - - - - - -
25.04.2018 00:00:00 - - - - - - -
24.04.2018 23:00:00 - - - - - - -
24.04.2018 22:00:00 - - - - - - -
24.04.2018 21:00:00 - - - - - - -
24.04.2018 20:00:00 23,2 9,2 8 4 ENE 1013,0 20
24.04.2018 19:00:00 - - - - - - -
24.04.2018 18:00:00 - - - - - - -
24.04.2018 17:00:00 24,6 6,8 13 7 ESE 1013,4 20
24.04.2018 16:00:00 - - - - - - -
24.04.2018 15:00:00 - - - - - - -
24.04.2018 14:00:00 24,0 9,2 15 8 ENE 1014,4 15
24.04.2018 13:00:00 - - - - - - -
24.04.2018 12:00:00 - - - - - - -
24.04.2018 11:00:00 19,0 8,9 8 4 NNE 1016,7 12
24.04.2018 10:00:00 - - - - - - -
24.04.2018 09:00:00 - - - - - - -
24.04.2018 08:00:00 13,4 8,9 0 0 N 1017,7 12
24.04.2018 07:00:00 - - - - - - -
24.04.2018 06:00:00 - - - - - - -
24.04.2018 05:00:00 - - - - - - -
24.04.2018 04:00:00 - - - - - - -
24.04.2018 03:00:00 - - - - - - -
24.04.2018 02:00:00 - - - - - - -
24.04.2018 01:00:00 - - - - - - -
24.04.2018 00:00:00 - - - - - - -
23.04.2018 23:00:00 - - - - - - -
23.04.2018 22:00:00 - - - - - - -
23.04.2018 21:00:00 - - - - - - -
23.04.2018 20:00:00 23,6 9,2 15 8 NNE 1013,2 25
23.04.2018 19:00:00 - - - - - - -
23.04.2018 18:00:00 - - - - - - -
23.04.2018 17:00:00 23,4 9,4 16 9 NE 1014,1 25
23.04.2018 16:00:00 - - - - - - -
23.04.2018 15:00:00 - - - - - - -
23.04.2018 14:00:00 21,8 9,7 21 11 NE 1016,0 20
23.04.2018 13:00:00 - - - - - - -
23.04.2018 12:00:00 - - - - - - -
23.04.2018 11:00:00 17,2 9,4 16 9 N 1017,5 15
23.04.2018 10:00:00 - - - - - - -
23.04.2018 09:00:00 - - - - - - -
23.04.2018 08:00:00 14,6 6,7 8 4 E 1018,0 18
23.04.2018 07:00:00 - - - - - - -
23.04.2018 06:00:00 - - - - - - -
23.04.2018 05:00:00 - - - - - - -
23.04.2018 04:00:00 - - - - - - -
23.04.2018 03:00:00 - - - - - - -
23.04.2018 02:00:00 - - - - - - -
23.04.2018 01:00:00 - - - - - - -
23.04.2018 00:00:00 - - - - - - -
22.04.2018 23:00:00 - - - - - - -
22.04.2018 22:00:00 - - - - - - -
22.04.2018 21:00:00 - - - - - - -
22.04.2018 20:00:00 22,0 8,9 9 5 SE 1012,6 40
22.04.2018 19:00:00 - - - - - - -
22.04.2018 18:00:00 - - - - - - -
22.04.2018 17:00:00 22,0 7,8 15 8 E 1012,2 40
22.04.2018 16:00:00 - - - - - - -
22.04.2018 15:00:00 - - - - - - -
22.04.2018 14:00:00 20,8 6,7 11 6 E 1014,0 30
22.04.2018 13:00:00 - - - - - - -
22.04.2018 12:00:00 - - - - - - -
22.04.2018 11:00:00 18,2 7,0 13 7 NNE 1015,6 20
22.04.2018 10:00:00 - - - - - - -
22.04.2018 09:00:00 - - - - - - -
22.04.2018 08:00:00 13,0 8,3 5 3 ENE 1017,3 15
22.04.2018 07:00:00 - - - - - - -
22.04.2018 06:00:00 - - - - - - -
22.04.2018 05:00:00 - - - - - - -
22.04.2018 04:00:00 - - - - - - -
22.04.2018 03:00:00 - - - - - - -
22.04.2018 02:00:00 - - - - - - -
22.04.2018 01:00:00 - - - - - - -
22.04.2018 00:00:00 - - - - - - -
21.04.2018 23:00:00 - - - - - - -
21.04.2018 22:00:00 - - - - - - -
21.04.2018 21:00:00 - - - - - - -
21.04.2018 20:00:00 20,0 8,4 9 5 E 1014,9 18
21.04.2018 19:00:00 - - - - - - -
21.04.2018 18:00:00 - - - - - - -
21.04.2018 17:00:00 19,6 7,4 13 7 ESE 1016,0 20
21.04.2018 16:00:00 - - - - - - -
21.04.2018 15:00:00 - - - - - - -
21.04.2018 14:00:00 15,8 7,6 22 12 NE 1017,7 20
21.04.2018 13:00:00 - - - - - - -
21.04.2018 12:00:00 - - - - - - -
21.04.2018 11:00:00 14,0 7,8 13 7 NE 1020,0 20
21.04.2018 10:00:00 - - - - - - -
21.04.2018 09:00:00 - - - - - - -
21.04.2018 08:00:00 11,6 7,1 8 4 ENE 1019,8 12
21.04.2018 07:00:00 - - - - - - -
21.04.2018 06:00:00 - - - - - - -
21.04.2018 05:00:00 - - - - - - -
21.04.2018 04:00:00 - - - - - - -
21.04.2018 03:00:00 - - - - - - -
21.04.2018 02:00:00 - - - - - - -
21.04.2018 01:00:00 - - - - - - -
21.04.2018 00:00:00 - - - - - - -
20.04.2018 23:00:00 - - - - - - -
20.04.2018 22:00:00 - - - - - - -
20.04.2018 21:00:00 - - - - - - -
20.04.2018 20:00:00 19,4 6,2 29 16 SE 1016,3 40
20.04.2018 19:00:00 - - - - - - -
20.04.2018 18:00:00 - - - - - - -
20.04.2018 17:00:00 20,4 7,1 29 16 SE 1016,0 40
20.04.2018 16:00:00 - - - - - - -
20.04.2018 15:00:00 - - - - - - -
20.04.2018 14:00:00 18,8 6,9 24 13 ESE 1018,3 30
20.04.2018 13:00:00 - - - - - - -
20.04.2018 12:00:00 - - - - - - -
20.04.2018 11:00:00 15,6 7,9 22 12 E 1020,1 25
20.04.2018 10:00:00 - - - - - - -
20.04.2018 09:00:00 - - - - - - -
20.04.2018 08:00:00 12,2 7,3 11 6 ESE 1021,4 15
20.04.2018 07:00:00 - - - - - - -
20.04.2018 06:00:00 - - - - - - -
20.04.2018 05:00:00 - - - - - - -
20.04.2018 04:00:00 - - - - - - -
20.04.2018 03:00:00 - - - - - - -
20.04.2018 02:00:00 - - - - - - -
20.04.2018 01:00:00 - - - - - - -
20.04.2018 00:00:00 - - - - - - -
19.04.2018 23:00:00 - - - - - - -
19.04.2018 22:00:00 - - - - - - -
19.04.2018 21:00:00 - - - - - - -
19.04.2018 20:00:00 21,8 4,8 21 11 SE 1017,1 20
19.04.2018 19:00:00 - - - - - - -
19.04.2018 18:00:00 - - - - - - -
19.04.2018 17:00:00 22,8 4,3 11 6 SE 1017,3 30
19.04.2018 16:00:00 - - - - - - -
19.04.2018 15:00:00 - - - - - - -
19.04.2018 14:00:00 20,4 6,7 13 7 E 1020,0 30
19.04.2018 13:00:00 - - - - - - -
19.04.2018 12:00:00 - - - - - - -
19.04.2018 11:00:00 17,2 5,5 11 6 NE 1022,1 20
19.04.2018 10:00:00 - - - - - - -
19.04.2018 09:00:00 - - - - - - -
19.04.2018 08:00:00 12,2 6,0 5 3 ENE 1023,3 12
19.04.2018 07:00:00 - - - - - - -

tt = Température de l'air
td = dewpoint
ff = Vitesse du vent
dd = Direction du vent
ppp = reduced air pressure
vv = visibility

stations d'obs. à proximité